Time,TemperatureF,DewpointF,PressureIn,WindDirection,WindDirectionDegrees,WindSpeedMPH,WindSpeedGustMPH,Humidity,HourlyPrecipIn,Conditions,Clouds,dailyrainin,SolarRadiationWatts/m^2,SoftwareType,DateUTC
2013-10-13 00:00:00,51.3,48.0,29.93,SW,233,0.0,2.0,87,0.00,,,0.00,0,weatherlink.com 1.10,2013-10-13 07:00:00,
2013-10-13 00:15:00,51.2,48.0,29.93,SW,231,1.0,4.0,89,0.00,,,0.00,0,weatherlink.com 1.10,2013-10-13 07:15:00,
2013-10-13 00:30:00,51.8,49.0,29.93,WNW,288,0.0,5.0,89,0.00,,,0.00,0,weatherlink.com 1.10,2013-10-13 07:30:00,
2013-10-13 00:45:00,52.2,49.0,29.93,WNW,300,4.0,7.0,89,0.00,,,0.00,0,weatherlink.com 1.10,2013-10-13 07:45:00,
2013-10-13 01:00:00,52.4,49.0,29.94,WNW,293,3.0,8.0,89,0.00,,,0.00,0,weatherlink.com 1.10,2013-10-13 08:00:00,
2013-10-13 01:15:00,52.7,50.0,29.93,WNW,295,3.0,6.0,89,0.00,,,0.00,0,weatherlink.com 1.10,2013-10-13 08:15:00,
2013-10-13 01:30:00,52.8,50.0,29.93,NW,319,6.0,7.0,89,0.00,,,0.00,0,weatherlink.com 1.10,2013-10-13 08:30:00,
2013-10-13 01:45:00,52.9,50.0,29.93,NW,313,4.0,10.0,89,0.00,,,0.00,0,weatherlink.com 1.10,2013-10-13 08:45:00,
2013-10-13 02:00:00,53.0,50.0,29.93,NW,306,2.0,8.0,89,0.00,,,0.00,0,weatherlink.com 1.10,2013-10-13 09:00:00,
2013-10-13 02:15:00,53.0,50.0,29.93,WNW,291,4.0,7.0,88,0.00,,,0.00,0,weatherlink.com 1.10,2013-10-13 09:15:00,
2013-10-13 02:30:00,53.2,50.0,29.93,NW,304,7.0,7.0,89,0.00,,,0.00,0,weatherlink.com 1.10,2013-10-13 09:30:00,
2013-10-13 02:45:00,53.3,50.0,29.93,West,266,2.0,5.0,88,0.00,,,0.00,0,weatherlink.com 1.10,2013-10-13 09:45:00,
2013-10-13 03:00:00,53.2,50.0,29.93,West,270,0.0,3.0,88,0.00,,,0.00,0,weatherlink.com 1.10,2013-10-13 10:00:00,
2013-10-13 03:15:00,52.1,48.0,29.93,West,269,3.0,4.0,87,0.00,,,0.00,0,weatherlink.com 1.10,2013-10-13 10:15:00,
2013-10-13 03:30:00,51.3,48.0,29.93,West,268,1.0,3.0,89,0.00,,,0.00,0,weatherlink.com 1.10,2013-10-13 10:30:00,
2013-10-13 03:46:00,49.8,47.0,29.94,West,268,2.0,3.0,90,0.00,,,0.00,0,weatherlink.com 1.10,2013-10-13 10:46:00,
2013-10-13 04:01:00,49.1,47.0,29.94,West,268,2.0,3.0,91,0.00,,,0.00,0,weatherlink.com 1.10,2013-10-13 11:01:00,
2013-10-13 04:16:00,48.6,46.0,29.94,West,259,3.0,4.0,92,0.00,,,0.00,0,weatherlink.com 1.10,2013-10-13 11:16:00,
2013-10-13 04:31:00,48.6,46.0,29.95,West,259,0.0,4.0,92,0.00,,,0.00,0,weatherlink.com 1.10,2013-10-13 11:31:00,
2013-10-13 04:46:00,48.9,47.0,29.95,West,259,1.0,3.0,92,0.00,,,0.00,0,weatherlink.com 1.10,2013-10-13 11:46:00,
2013-10-13 05:01:00,48.2,46.0,29.96,West,259,0.0,2.0,91,0.00,,,0.00,0,weatherlink.com 1.10,2013-10-13 12:01:00,
2013-10-13 05:16:00,48.5,46.0,29.96,West,259,0.0,0.0,91,0.00,,,0.00,0,weatherlink.com 1.10,2013-10-13 12:16:00,
2013-10-13 05:31:00,48.2,46.0,29.96,West,259,0.0,0.0,92,0.00,,,0.00,0,weatherlink.com 1.10,2013-10-13 12:31:00,
2013-10-13 05:46:00,47.7,45.0,29.96,West,259,0.0,0.0,91,0.00,,,0.00,0,weatherlink.com 1.10,2013-10-13 12:46:00,
2013-10-13 06:01:00,47.0,45.0,29.97,West,259,0.0,2.0,92,0.00,,,0.00,0,weatherlink.com 1.10,2013-10-13 13:01:00,
2013-10-13 06:16:00,47.0,45.0,29.97,West,259,0.0,2.0,92,0.00,,,0.00,0,weatherlink.com 1.10,2013-10-13 13:16:00,
2013-10-13 06:31:00,46.8,45.0,29.98,West,259,0.0,2.0,92,0.00,,,0.00,0,weatherlink.com 1.10,2013-10-13 13:31:00,
2013-10-13 06:46:00,46.5,45.0,29.98,West,259,0.0,3.0,93,0.00,,,0.00,0,weatherlink.com 1.10,2013-10-13 13:46:00,
2013-10-13 07:01:00,46.0,44.0,29.98,West,259,1.0,3.0,92,0.00,,,0.00,0,weatherlink.com 1.10,2013-10-13 14:01:00,
2013-10-13 07:16:00,46.2,44.0,29.99,West,259,1.0,2.0,93,0.00,,,0.00,5,weatherlink.com 1.10,2013-10-13 14:16:00,
2013-10-13 07:31:00,46.5,44.0,29.99,West,259,2.0,3.0,92,0.00,,,0.00,18,weatherlink.com 1.10,2013-10-13 14:31:00,
2013-10-13 07:46:00,47.5,46.0,30.00,West,259,0.0,3.0,93,0.00,,,0.00,90,weatherlink.com 1.10,2013-10-13 14:46:00,
2013-10-13 08:01:00,48.5,47.0,30.00,WSW,258,1.0,4.0,93,0.00,,,0.00,125,weatherlink.com 1.10,2013-10-13 15:01:00,
2013-10-13 08:16:00,49.8,47.0,30.01,WSW,258,1.0,2.0,90,0.00,,,0.00,199,weatherlink.com 1.10,2013-10-13 15:16:00,
2013-10-13 08:31:00,51.1,48.0,30.01,WSW,258,1.0,3.0,88,0.00,,,0.00,301,weatherlink.com 1.10,2013-10-13 15:31:00,
2013-10-13 08:46:00,52.1,49.0,30.02,WSW,254,3.0,4.0,88,0.00,,,0.00,295,weatherlink.com 1.10,2013-10-13 15:46:00,
2013-10-13 09:01:00,53.7,51.0,30.02,WSW,254,2.0,4.0,89,0.00,,,0.00,350,weatherlink.com 1.10,2013-10-13 16:01:00,
2013-10-13 09:16:00,55.6,51.0,30.02,WSW,254,0.0,4.0,85,0.00,,,0.00,396,weatherlink.com 1.10,2013-10-13 16:16:00,
2013-10-13 09:32:00,56.7,51.0,30.02,WSW,254,1.0,4.0,82,0.00,,,0.00,438,weatherlink.com 1.10,2013-10-13 16:32:00,
2013-10-13 09:47:00,58.1,51.0,30.02,WSW,247,2.0,3.0,78,0.00,,,0.00,482,weatherlink.com 1.10,2013-10-13 16:47:00,
2013-10-13 10:02:00,59.8,51.0,30.02,SW,235,1.0,4.0,72,0.00,,,0.00,524,weatherlink.com 1.10,2013-10-13 17:02:00,
2013-10-13 10:17:00,60.9,49.0,30.03,SW,229,2.0,4.0,66,0.00,,,0.00,555,weatherlink.com 1.10,2013-10-13 17:17:00,
2013-10-13 10:32:00,61.6,49.0,30.03,SW,229,0.0,3.0,63,0.00,,,0.00,584,weatherlink.com 1.10,2013-10-13 17:32:00,
2013-10-13 10:47:00,63.0,46.0,30.03,North,5,4.0,6.0,54,0.00,,,0.00,610,weatherlink.com 1.10,2013-10-13 17:47:00,
2013-10-13 11:02:00,64.6,45.0,30.03,North,355,4.0,5.0,50,0.00,,,0.00,635,weatherlink.com 1.10,2013-10-13 18:02:00,
2013-10-13 11:17:00,64.3,45.0,30.02,NNW,334,2.0,7.0,49,0.00,,,0.00,650,weatherlink.com 1.10,2013-10-13 18:17:00,
2013-10-13 11:32:00,65.4,43.0,30.02,North,355,1.0,8.0,45,0.00,,,0.00,664,weatherlink.com 1.10,2013-10-13 18:32:00,
2013-10-13 11:47:00,66.2,43.0,30.02,NNW,340,3.0,7.0,43,0.00,,,0.00,679,weatherlink.com 1.10,2013-10-13 18:47:00,
2013-10-13 12:02:00,67.6,42.0,30.02,North,9,4.0,8.0,40,0.00,,,0.00,693,weatherlink.com 1.10,2013-10-13 19:02:00,
2013-10-13 12:17:00,67.5,42.0,30.02,WNW,284,5.0,8.0,40,0.00,,,0.00,701,weatherlink.com 1.10,2013-10-13 19:17:00,
2013-10-13 12:32:00,68.3,42.0,30.02,NW,316,2.0,10.0,39,0.00,,,0.00,700,weatherlink.com 1.10,2013-10-13 19:32:00,
2013-10-13 12:47:00,68.7,41.0,30.01,NW,313,3.0,11.0,37,0.00,,,0.00,698,weatherlink.com 1.10,2013-10-13 19:47:00,
2013-10-13 13:02:00,69.0,42.0,30.01,NNW,348,4.0,9.0,37,0.00,,,0.00,693,weatherlink.com 1.10,2013-10-13 20:02:00,
2013-10-13 13:17:00,70.3,42.0,30.00,NNE,32,5.0,9.0,36,0.00,,,0.00,680,weatherlink.com 1.10,2013-10-13 20:17:00,
2013-10-13 13:32:00,70.4,42.0,29.99,WSW,243,5.0,8.0,36,0.00,,,0.00,671,weatherlink.com 1.10,2013-10-13 20:32:00,
2013-10-13 13:47:00,71.4,42.0,29.99,NNW,343,8.0,10.0,34,0.00,,,0.00,649,weatherlink.com 1.10,2013-10-13 20:47:00,
2013-10-13 14:02:00,71.7,41.0,29.99,WNW,294,3.0,12.0,33,0.00,,,0.00,626,weatherlink.com 1.10,2013-10-13 21:02:00,
2013-10-13 14:17:00,72.1,40.0,29.99,NNW,346,7.0,10.0,31,0.00,,,0.00,606,weatherlink.com 1.10,2013-10-13 21:17:00,
2013-10-13 14:32:00,72.2,40.0,29.98,North,355,8.0,13.0,31,0.00,,,0.00,575,weatherlink.com 1.10,2013-10-13 21:32:00,
2013-10-13 14:47:00,72.4,39.0,29.98,NNW,338,3.0,12.0,30,0.00,,,0.00,541,weatherlink.com 1.10,2013-10-13 21:47:00,
2013-10-13 15:02:00,73.1,40.0,29.98,North,5,7.0,12.0,30,0.00,,,0.00,504,weatherlink.com 1.10,2013-10-13 22:02:00,
2013-10-13 15:17:00,73.2,39.0,29.98,North,360,7.0,12.0,29,0.00,,,0.00,475,weatherlink.com 1.10,2013-10-13 22:17:00,
2013-10-13 15:33:00,73.5,38.0,29.98,North,5,9.0,14.0,28,0.00,,,0.00,434,weatherlink.com 1.10,2013-10-13 22:33:00,
2013-10-13 15:48:00,73.5,38.0,29.98,North,355,6.0,12.0,28,0.00,,,0.00,387,weatherlink.com 1.10,2013-10-13 22:48:00,
2013-10-13 16:03:00,73.3,38.0,29.98,NNW,340,9.0,10.0,28,0.00,,,0.00,345,weatherlink.com 1.10,2013-10-13 23:03:00,
2013-10-13 16:18:00,73.4,38.0,29.98,North,5,7.0,11.0,28,0.00,,,0.00,301,weatherlink.com 1.10,2013-10-13 23:18:00,
2013-10-13 16:33:00,73.4,38.0,29.98,NNW,345,3.0,8.0,28,0.00,,,0.00,250,weatherlink.com 1.10,2013-10-13 23:33:00,
2013-10-13 16:48:00,72.8,39.0,29.99,NNW,347,5.0,9.0,29,0.00,,,0.00,186,weatherlink.com 1.10,2013-10-13 23:48:00,
2013-10-13 17:03:00,72.7,39.0,29.99,NNW,340,6.0,10.0,29,0.00,,,0.00,127,weatherlink.com 1.10,2013-10-14 00:03:00,
2013-10-13 17:18:00,72.6,39.0,29.99,NW,316,9.0,9.0,30,0.00,,,0.00,77,weatherlink.com 1.10,2013-10-14 00:18:00,
2013-10-13 17:33:00,69.5,43.0,30.00,WNW,289,4.0,11.0,38,0.00,,,0.00,35,weatherlink.com 1.10,2013-10-14 00:33:00,
2013-10-13 17:48:00,68.6,43.0,29.99,WNW,298,5.0,15.0,39,0.00,,,0.00,25,weatherlink.com 1.10,2013-10-14 00:48:00,
2013-10-13 18:03:00,67.8,42.0,30.00,NW,308,8.0,12.0,39,0.00,,,0.00,19,weatherlink.com 1.10,2013-10-14 01:03:00,
2013-10-13 18:18:00,66.4,42.0,30.00,West,270,9.0,9.0,41,0.00,,,0.00,12,weatherlink.com 1.10,2013-10-14 01:18:00,
2013-10-13 18:33:00,64.6,41.0,30.00,WNW,289,1.0,11.0,43,0.00,,,0.00,5,weatherlink.com 1.10,2013-10-14 01:33:00,
2013-10-13 18:48:00,63.6,42.0,30.01,WNW,296,1.0,7.0,45,0.00,,,0.00,0,weatherlink.com 1.10,2013-10-14 01:48:00,
2013-10-13 19:03:00,62.7,41.0,30.02,WNW,282,4.0,8.0,46,0.00,,,0.00,0,weatherlink.com 1.10,2013-10-14 02:03:00,
2013-10-13 19:18:00,62.1,41.0,30.02,WNW,294,3.0,5.0,47,0.00,,,0.00,0,weatherlink.com 1.10,2013-10-14 02:18:00,
2013-10-13 19:33:00,61.6,42.0,30.02,WNW,295,0.0,3.0,48,0.00,,,0.00,0,weatherlink.com 1.10,2013-10-14 02:33:00,
2013-10-13 19:48:00,61.0,41.0,30.02,WNW,295,1.0,4.0,49,0.00,,,0.00,0,weatherlink.com 1.10,2013-10-14 02:48:00,
2013-10-13 20:03:00,60.2,42.0,30.03,WNW,298,0.0,2.0,51,0.00,,,0.00,0,weatherlink.com 1.10,2013-10-14 03:03:00,
2013-10-13 20:18:00,58.2,42.0,30.03,WNW,298,0.0,2.0,55,0.00,,,0.00,0,weatherlink.com 1.10,2013-10-14 03:18:00,
2013-10-13 20:33:00,57.8,42.0,30.03,WNW,298,0.0,2.0,55,0.00,,,0.00,0,weatherlink.com 1.10,2013-10-14 03:33:00,
2013-10-13 20:48:00,56.4,41.0,30.04,WNW,298,2.0,2.0,57,0.00,,,0.00,0,weatherlink.com 1.10,2013-10-14 03:48:00,
2013-10-13 21:03:00,55.9,41.0,30.05,WNW,298,0.0,2.0,58,0.00,,,0.00,0,weatherlink.com 1.10,2013-10-14 04:03:00,
2013-10-13 21:18:00,54.9,41.0,30.05,WNW,298,2.0,3.0,61,0.00,,,0.00,0,weatherlink.com 1.10,2013-10-14 04:18:00,
2013-10-13 21:33:00,55.1,42.0,30.06,WNW,296,0.0,3.0,61,0.00,,,0.00,0,weatherlink.com 1.10,2013-10-14 04:33:00,
2013-10-13 21:48:00,54.8,41.0,30.06,WNW,296,0.0,0.0,61,0.00,,,0.00,0,weatherlink.com 1.10,2013-10-14 04:48:00,
2013-10-13 22:03:00,53.8,42.0,30.06,WNW,296,0.0,2.0,65,0.00,,,0.00,0,weatherlink.com 1.10,2013-10-14 05:03:00,
2013-10-13 22:18:00,53.5,41.0,30.07,WNW,296,0.0,0.0,64,0.00,,,0.00,0,weatherlink.com 1.10,2013-10-14 05:18:00,
2013-10-13 22:33:00,53.2,42.0,30.07,WNW,296,0.0,0.0,65,0.00,,,0.00,0,weatherlink.com 1.10,2013-10-14 05:33:00,
2013-10-13 22:48:00,52.7,42.0,30.07,WNW,296,1.0,2.0,67,0.00,,,0.00,0,weatherlink.com 1.10,2013-10-14 05:48:00,
2013-10-13 23:03:00,52.0,41.0,30.07,WNW,296,0.0,1.0,67,0.00,,,0.00,0,weatherlink.com 1.10,2013-10-14 06:03:00,
2013-10-13 23:18:00,52.7,42.0,30.07,WNW,296,0.0,0.0,67,0.00,,,0.00,0,weatherlink.com 1.10,2013-10-14 06:18:00,
2013-10-13 23:33:00,52.0,42.0,30.07,WNW,296,0.0,0.0,68,0.00,,,0.00,0,weatherlink.com 1.10,2013-10-14 06:33:00,
2013-10-13 23:48:00,51.5,42.0,30.07,WNW,296,0.0,0.0,69,0.00,,,0.00,0,weatherlink.com 1.10,2013-10-14 06:48:00,